{"data":{"norad_id":67917,"epoch":"2026-05-25T02:42:56.204928Z","epoch_age_seconds":61923,"freshness":"FRESH","line1":"1 67917U 26036P   26145.11315052  .00015182  00000+0  55994-3 0  9994","line2":"2 67917  42.9995 173.3398 0002124 286.0722  73.9896 15.27588706 15412","mean_motion":15.27588706,"eccentricity":0.0002124,"inclination_deg":42.9995,"raan_deg":173.3398,"arg_perigee_deg":286.0722,"mean_anomaly_deg":73.9896,"bstar":0.00055994,"rev_number":1541,"period_min":94.266211470668,"perigee_km":481.5657168777,"apogee_km":484.48033765729,"semimajor_km":6861.1600272675,"source":"CELESTRAK","updated_at":"2026-05-25T13:38:21.740354Z"}}